Wind_Speed
11 12 12 13 14 14 14 13 14 14 14 15 16 15 14 14 14 14 14 14 14 14 14 15 15 16 16 16 16 16 15 15 15 15 15 15 16 16 15 15 15 15 15
11 11 12 13 13 14 14 14 13 13 13 14 14 14 14 14 14 15 15 15 15 15 15 16 16 17 17 17 17 18 17 17 16 16 16 15 15 16 16 15 15 16 16
12 12 12 13 13 13 13 14 14 14 14 14 14 14 15 14 15 15 15 15 15 15 15 16 16 17 17 18 18 19 19 18 17 17 17 17 17 16 16 16 16 16 17
11 11 12 13 13 13 13 14 15 15 15 15 15 15 16 16 16 16 15 15 15 16 16 16 16 17 17 18 18 19 19 19 19 18 18 18 18 18 18 17 17 17 17
11 10 11 13 13 13 13 14 15 16 16 16 16 16 17 17 17 16 16 16 16 16 16 17 17 17 17 18 19 19 20 20 20 19 19 19 19 19 20 19 18 18 18
11 12 12 12 13 14 14 15 15 16 16 17 17 17 17 17 18 17 17 17 18 18 18 19 19 19 19 19 19 19 20 20 20 20 20 20 19 20 20 20 20 19 18
12 12 12 12 13 14 14 15 15 16 16 17 17 17 17 18 18 18 18 19 19 20 20 20 21 21 21 21 21 20 20 20 20 20 21 21 20 20 20 20 20 20 19
11 11 12 13 14 14 15 15 16 16 16 17 17 17 17 18 19 20 20 21 21 21 21 22 22 22 22 22 22 21 20 21 21 21 20 21 21 20 20 20 20 19 19
12 12 12 13 14 15 15 16 16 16 17 18 18 18 19 19 20 20 21 21 22 22 21 22 23 23 23 22 22 21 21 21 21 20 20 20 20 20 21 21 21 20 20
13 13 14 14 15 15 16 16 16 17 18 18 19 19 19 20 20 20 21 21 21 21 21 22 23 22 22 21 21 21 21 21 20 20 20 20 20 20 21 21 21 21 21
13 14 15 15 16 16 16 17 17 17 18 18 19 19 20 20 21 21 21 21 21 21 21 22 22 21 20 21 21 21 20 20 20 20 20 21 20 21 22 22 22 22 22
14 15 15 16 17 17 17 17 17 18 18 19 19 19 19 20 21 21 21 21 22 21 21 21 21 20 19 20 20 20 20 20 20 20 21 21 21 21 22 22 22 22 22
16 17 17 17 18 18 18 18 18 19 19 19 19 20 20 20 20 21 20 21 21 21 22 22 21 21 20 20 20 20 21 21 21 21 21 21 21 21 21 21 22 22 22
17 18 18 17 18 18 19 19 20 20 20 19 20 20 20 20 20 20 20 20 21 21 21 22 22 21 21 20 20 20 20 20 20 21 21 21 21 21 22 22 22 22 23
19 19 19 19 20 20 20 20 21 20 20 20 20 20 20 20 20 20 20 21 21 21 21 21 21 21 21 22 21 20 20 20 20 21 22 22 22 21 22 23 23 23 23
20 21 21 21 21 21 21 21 21 22 22 21 21 21 21 20 21 21 21 22 21 21 21 21 21 21 21 21 21 21 21 21 22 22 22 23 23 23 24 24 24 24 24
22 23 23 23 23 23 22 22 22 22 22 22 22 22 22 22 23 23 23 22 22 22 22 21 21 21 21 22 22 22 22 23 23 24 24 24 24 25 26 26 25 25 25
23 24 23 23 23 23 23 22 22 22 22 22 23 23 24 24 24 24 23 22 22 23 24 24 23 23 23 23 23 24 24 24 25 25 25 25 25 26 27 27 26 26 26
23 23 24 24 24 24 24 23 23 22 22 23 24 24 24 24 24 24 23 23 23 23 23 24 24 24 24 24 25 25 26 26 26 26 26 27 26 27 27 27 27 27 27
24 24 25 25 25 25 25 24 24 24 23 23 24 24 25 25 24 24 24 24 24 24 24 25 25 25 25 25 26 26 27 27 27 27 28 28 28 27 28 28 28 28 29
25 25 25 25 25 25 25 25 24 24 24 24 25 25 26 26 26 26 26 26 25 25 26 26 26 27 27 27 27 27 28 28 28 28 29 29 29 28 29 29 29 29 29
25 25 25 25 25 25 25 25 25 25 25 25 26 26 26 26 26 26 26 27 27 27 27 27 27 27 27 27 27 27 28 28 28 28 29 29 29 29 29 30 31 31 31
26 25 25 25 25 25 25 26 25 25 26 26 26 27 27 27 26 26 26 27 27 28 28 28 28 27 27 27 28 28 28 29 29 29 29 30 30 30 31 31 31 32 32
25 25 25 25 25 25 25 26 26 26 26 26 26 26 26 26 26 27 27 28 28 28 28 28 28 28 28 28 29 29 29 30 30 31 31 32 32 31 31 32 32 32 33
25 25 25 25 25 25 25 25 25 25 25 26 26 25 25 25 26 26 27 27 28 29 28 28 28 28 28 28 29 30 30 30 30 31 31 32 32 32 32 32 32 32 33
25 24 24 24 24 24 24 25 25 25 25 25 25 25 25 25 26 26 27 27 28 28 28 28 28 29 29 29 29 30 30 31 31 32 31 31 31 32 32 32 32 32 32
Wind_Direction
275 274 275 276 274 273 275 274 273 275 275 276 278 277 274 274 275 277 277 275 275 271 270 267 265 264 263 265 265 264 265 266 267 267 265 263 263 262 262 262 262 261 261
276 274 277 276 275 275 276 275 274 276 279 278 279 275 276 277 279 279 276 276 276 273 271 271 268 265 263 265 265 265 264 265 266 266 266 266 265 263 260 259 261 262 261
279 277 278 276 275 277 277 277 278 280 282 281 281 280 280 278 278 279 277 277 276 275 273 272 273 270 266 266 266 266 266 265 265 266 266 265 263 262 260 260 261 262 262
279 276 279 280 278 277 277 277 278 281 281 281 282 281 279 277 278 276 275 276 277 276 274 272 272 272 270 269 267 266 265 264 264 264 263 263 263 262 261 261 261 261 262
281 279 284 284 281 279 278 278 279 279 279 280 282 282 282 281 280 276 275 276 276 275 274 272 272 271 270 270 269 268 265 265 263 261 262 262 262 262 260 261 262 262 262
285 284 284 285 284 283 281 280 281 280 279 280 282 282 282 281 281 278 275 274 274 275 274 272 271 270 269 270 270 269 267 265 263 261 261 261 262 262 261 260 261 263 263
285 284 285 286 286 287 285 284 283 282 280 281 283 284 283 282 280 280 279 278 276 275 274 273 272 271 270 270 270 269 268 266 265 262 260 259 260 262 261 261 261 262 262
285 286 287 287 286 287 286 286 287 285 282 283 285 287 286 284 283 281 281 280 279 278 276 274 274 272 271 272 271 268 268 268 268 267 264 262 260 262 262 261 260 261 261
289 289 290 290 288 288 287 287 288 287 286 286 286 287 287 286 285 284 282 281 279 279 278 277 276 274 272 272 269 266 266 266 266 266 264 262 260 260 261 261 259 258 258
289 290 291 291 290 288 287 286 287 288 289 289 289 287 286 286 285 285 283 280 279 278 277 277 276 273 270 269 267 266 264 265 264 262 262 262 261 260 260 260 259 257 257
288 287 290 289 290 289 287 285 285 287 288 290 290 289 288 289 287 286 283 281 280 279 276 275 276 274 273 270 266 265 264 261 260 260 260 261 262 261 261 261 260 258 257
285 285 288 288 290 289 287 285 285 287 289 290 291 293 293 291 290 288 284 281 281 280 278 277 274 273 272 270 266 265 263 260 260 260 260 261 262 261 260 260 260 259 257
285 286 287 286 287 288 288 288 288 287 289 290 290 291 293 292 290 289 286 282 281 280 278 275 274 271 270 270 267 263 261 260 259 259 259 261 261 260 259 259 258 259 258
285 286 286 286 288 289 290 290 287 286 287 288 289 290 291 292 291 290 288 284 282 280 279 277 274 272 269 270 270 266 262 260 259 258 258 259 259 260 259 259 259 260 259
287 287 288 287 288 288 288 288 288 287 286 287 287 288 290 290 290 289 289 286 283 281 281 279 274 271 270 269 269 268 265 261 260 258 257 258 259 260 260 260 260 261 261
285 285 286 286 286 286 287 288 288 287 287 286 287 288 288 288 288 289 289 285 282 280 281 278 273 273 271 269 268 267 266 263 262 260 260 260 259 259 260 260 261 261 262
284 284 287 285 286 287 288 288 289 288 287 286 285 286 287 287 287 286 286 284 283 282 282 280 276 272 270 269 268 267 265 264 264 263 262 262 262 261 260 260 262 263 263
282 285 286 285 285 287 288 289 289 289 288 287 285 286 286 287 286 287 285 283 283 281 280 280 277 273 271 270 269 268 268 267 266 266 264 263 264 263 262 261 261 262 263
280 281 282 283 284 286 287 287 287 287 287 287 286 287 288 287 287 287 285 283 282 282 280 278 276 274 273 272 272 270 269 269 267 267 266 265 265 264 264 263 261 261 263
279 278 279 281 283 285 285 286 286 286 286 286 286 286 286 287 286 285 283 282 281 281 280 278 275 274 273 272 271 271 270 269 268 267 267 267 266 265 264 265 263 262 263
279 279 279 280 282 283 284 284 285 286 285 284 285 286 287 287 286 284 283 283 282 281 280 279 277 276 275 274 273 272 270 269 270 268 268 267 267 267 266 266 265 263 263
280 280 280 280 281 282 283 283 284 284 284 283 283 284 286 286 286 285 284 284 284 283 282 280 278 277 275 275 273 272 272 271 270 270 269 268 268 269 269 267 266 265 265
280 281 282 281 281 281 282 283 284 284 285 285 284 284 285 286 286 285 285 285 286 285 284 283 281 278 277 276 275 275 274 271 270 269 268 268 268 269 270 269 267 265 265
282 283 283 283 282 282 283 284 284 286 287 286 286 286 286 286 286 285 286 285 286 286 285 284 282 280 277 276 275 274 274 274 272 271 271 270 269 269 270 269 267 266 265
283 284 284 284 284 283 284 285 286 288 288 288 288 289 288 287 285 285 286 287 287 288 287 285 283 281 278 277 277 275 274 275 274 273 273 272 272 271 270 270 269 268 267
283 284 283 284 284 284 284 285 286 288 289 288 289 290 290 290 289 289 288 288 289 289 289 287 284 282 279 276 276 276 274 274 273 272 272 272 272 272 271 270 271 270 268
Height
5835 5834 5834 5833 5833 5833 5833 5833 5832 5832 5831 5830 5830 5829 5829 5829 5828 5827 5827 5826 5826 5826 5825 5825 5825 5824 5824 5824 5824 5824 5824 5824 5824 5824 5824 5824 5824 5824 5824 5824 5824 5823 5823
5831 5831 5830 5830 5829 5829 5828 5829 5828 5828 5827 5827 5826 5825 5825 5824 5824 5823 5823 5822 5822 5821 5821 5821 5821 5820 5820 5820 5820 5820 5820 5820 5820 5820 5820 5820 5821 5820 5820 5820 5820 5820 5820
5827 5827 5827 5826 5826 5825 5825 5825 5824 5824 5824 5823 5822 5821 5820 5820 5820 5819 5818 5818 5817 5817 5816 5816 5816 5816 5815 5816 5815 5815 5816 5815 5816 5816 5816 5816 5816 5816 5816 5816 5816 5816 5816
5824 5823 5823 5823 5822 5822 5821 5821 5820 5820 5819 5819 5818 5817 5816 5816 5815 5814 5814 5813 5812 5812 5812 5811 5811 5811 5811 5810 5810 5810 5810 5810 5811 5811 5811 5811 5811 5812 5812 5812 5812 5812 5812
5820 5820 5819 5819 5818 5818 5817 5817 5816 5816 5815 5814 5814 5813 5812 5811 5809 5809 5809 5808 5808 5807 5807 5806 5806 5806 5805 5805 5805 5805 5805 5805 5805 5805 5806 5806 5806 5807 5807 5807 5807 5808 5808
5816 5816 5816 5815 5815 5814 5813 5813 5812 5811 5811 5810 5809 5809 5807 5806 5805 5804 5803 5802 5802 5801 5801 5801 5800 5800 5800 5799 5799 5799 5799 5799 5799 5800 5800 5801 5801 5801 5802 5802 5802 5803 5803
5813 5812 5812 5812 5811 5810 5809 5809 5808 5807 5806 5805 5805 5804 5803 5801 5800 5798 5797 5796 5796 5795 5795 5794 5794 5794 5793 5793 5793 5793 5793 5793 5793 5794 5794 5795 5795 5796 5796 5797 5797 5798 5798
5810 5809 5808 5808 5807 5806 5805 5804 5804 5803 5802 5800 5799 5798 5797 5796 5794 5793 5792 5790 5789 5789 5788 5787 5787 5787 5787 5787 5787 5787 5787 5787 5788 5788 5788 5789 5790 5790 5791 5791 5792 5792 5793
5806 5805 5804 5803 5803 5802 5801 5800 5799 5798 5797 5795 5794 5793 5791 5790 5788 5787 5785 5784 5783 5782 5781 5781 5780 5780 5780 5780 5780 5780 5781 5781 5781 5782 5782 5783 5784 5784 5785 5785 5786 5788 5788
5802 5802 5801 5800 5799 5798 5797 5795 5794 5793 5792 5790 5789 5787 5785 5784 5782 5781 5779 5778 5777 5776 5775 5774 5773 5773 5773 5773 5773 5774 5774 5775 5775 5776 5776 5777 5778 5779 5779 5780 5780 5781 5782
5799 5798 5797 5795 5794 5793 5792 5790 5789 5788 5786 5785 5783 5781 5779 5777 5776 5774 5773 5772 5770 5769 5768 5768 5767 5766 5766 5766 5767 5767 5768 5768 5769 5770 5770 5771 5772 5773 5773 5774 5774 5775 5776
5794 5793 5792 5791 5789 5788 5786 5785 5784 5782 5781 5779 5777 5775 5774 5772 5770 5768 5766 5765 5764 5763 5762 5761 5760 5760 5760 5760 5760 5761 5761 5762 5763 5763 5764 5765 5766 5766 5767 5768 5768 5769 5769
5790 5789 5788 5786 5785 5783 5781 5779 5778 5777 5775 5773 5772 5770 5768 5766 5764 5762 5760 5759 5757 5756 5755 5754 5754 5754 5754 5754 5754 5754 5755 5755 5756 5757 5758 5758 5759 5760 5761 5761 5762 5763 5763
5785 5784 5782 5781 5779 5778 5776 5774 5772 5770 5769 5768 5766 5764 5762 5760 5758 5756 5754 5753 5751 5750 5749 5748 5747 5747 5747 5747 5747 5747 5748 5749 5750 5751 5751 5752 5753 5754 5754 5755 5756 5756 5757
5779 5778 5776 5775 5773 5772 5770 5768 5766 5764 5763 5761 5760 5758 5757 5754 5752 5750 5748 5747 5745 5744 5743 5742 5741 5741 5741 5741 5741 5741 5741 5742 5743 5744 5745 5746 5746 5747 5748 5748 5749 5749 5749
5773 5772 5770 5769 5767 5765 5764 5762 5760 5758 5756 5755 5753 5752 5750 5748 5746 5744 5742 5741 5739 5738 5737 5736 5735 5735 5735 5734 5734 5735 5736 5736 5737 5737 5738 5738 5739 5740 5740 5741 5741 5742 5742
5767 5765 5763 5762 5760 5759 5757 5755 5754 5752 5750 5748 5746 5745 5743 5742 5740 5738 5736 5735 5733 5732 5731 5730 5730 5729 5728 5728 5728 5729 5729 5730 5730 5731 5731 5731 5732 5732 5733 5733 5734 5734 5734
5760 5758 5757 5755 5754 5752 5750 5749 5747 5745 5743 5741 5739 5738 5736 5735 5733 5731 5730 5728 5726 5725 5724 5723 5723 5722 5722 5722 5722 5722 5722 5723 5723 5723 5724 5724 5724 5724 5725 5725 5726 5726 5726
5752 5751 5749 5748 5746 5745 5743 5741 5740 5738 5736 5734 5732 5731 5729 5728 5726 5724 5722 5721 5719 5718 5717 5716 5716 5715 5715 5715 5714 5714 5714 5715 5715 5715 5716 5716 5716 5716 5716 5717 5717 5718 5718
5745 5743 5742 5740 5739 5737 5735 5734 5732 5731 5729 5727 5725 5724 5722 5720 5718 5717 5715 5714 5712 5711 5710 5709 5708 5707 5707 5707 5707 5706 5706 5706 5707 5707 5707 5707 5707 5707 5707 5707 5708 5708 5709
5736 5735 5734 5732 5731 5729 5728 5726 5725 5723 5722 5720 5718 5716 5714 5713 5711 5709 5707 5706 5705 5703 5702 5701 5700 5699 5699 5698 5698 5698 5697 5697 5697 5698 5698 5698 5698 5698 5698 5698 5698 5699 5699
5728 5727 5726 5724 5723 5721 5720 5718 5717 5715 5714 5712 5710 5708 5706 5704 5703 5701 5699 5698 5696 5695 5694 5692 5691 5690 5690 5689 5689 5688 5688 5688 5688 5688 5689 5688 5688 5688 5688 5688 5688 5688 5689
5720 5719 5718 5717 5715 5714 5712 5710 5709 5707 5706 5704 5702 5700 5698 5696 5694 5692 5691 5689 5688 5686 5685 5683 5682 5682 5681 5680 5680 5679 5679 5679 5679 5679 5679 5678 5678 5678 5677 5677 5677 5677 5678
5712 5711 5710 5708 5707 5705 5704 5702 5701 5699 5697 5696 5694 5692 5690 5688 5686 5684 5682 5681 5679 5677 5676 5675 5674 5673 5672 5671 5671 5670 5670 5669 5669 5668 5668 5668 5667 5667 5666 5666 5666 5666 5666
5704 5703 5702 5700 5699 5698 5696 5695 5693 5691 5690 5687 5685 5683 5682 5680 5678 5676 5674 5672 5670 5668 5667 5666 5664 5663 5663 5662 5661 5660 5660 5659 5659 5658 5657 5657 5656 5656 5656 5655 5654 5654 5654
5697 5695 5694 5693 5691 5690 5689 5687 5686 5684 5682 5680 5678 5676 5674 5672 5670 5668 5666 5664 5662 5660 5658 5656 5655 5653 5652 5651 5651 5650 5649 5648 5648 5647 5647 5646 5646 5645 5645 5644 5644 5644 5644